Home   Weather   Killeen   Past weeks
Flag for USA

Past Weather in Killeen, Texas, USA — Yesterday and Last 2 Weeks

Now
75 °F

Sunny.


Feels Like: 76 °F
Forecast: 74 / 55 °F
Wind: 5 mph from East

Location: Fort Hood / Gray U. S. Army Airfield

Current Time: Oct 21, 2019 at 5:55:21 pm

Latest Report: Oct 21, 2019 at 4:58 pm


Visibility: 10 mi

Pressure: 29.88 "Hg

Humidity: 20%

Dew Point: 31 °F

Location of KilleenLocation

Past Weather in Killeen — Graph

°F

Killeen Temperature Yesterday

Maximum temperature yesterday: 88 °F (at 4:58 pm)
Minimum temperature yesterday: 56 °F (at 2:58 am)
Average temperature yesterday: 73 °F

High & Low Weather Summary for the Past Weeks

 TemperatureHumidityPressure
High94 °F (Oct 6, 4:58 pm)94% (Oct 11, 1:58 am)30.28 "Hg (Oct 11, 1:58 am)
Low41 °F (Oct 11, 11:43 am)15% (Oct 19, 4:58 pm)29.59 "Hg (Oct 21, 12:58 am)
Average67 °F64%29.95 "Hg
* Reported Oct 6 3:58 pm — Oct 21 3:58 pm, Killeen. Weather by CustomWeather, © 2019

Note: Actual official high and low records may vary slightly from our data, if they occured in-between our weather recording intervals... More about our weather records

Advertising

Killeen Weather History for the Previous 24 Hours

Scroll right to see more
 ConditionsComfort  
Time TempWeatherWind HumidityBarometerVisibility
3:58 pm
Mon, Oct 21
75 °FSunny.8 mph22%29.88 "Hg10 mi
2:58 pm74 °FSunny.7 mph22%29.88 "Hg10 mi
1:58 pm73 °FSunny.8 mph24%29.89 "Hg10 mi
12:58 pm71 °FSunny.9 mph25%29.91 "Hg10 mi
11:58 am70 °FSunny.14 mph27%29.92 "Hg10 mi
10:58 am66 °FSunny.10 mph36%29.90 "Hg10 mi
9:58 am62 °FSunny.12 mph49%29.90 "Hg10 mi
8:58 am58 °FSunny.14 mph68%29.87 "Hg10 mi
7:58 am55 °FSunny.8 mph83%29.84 "Hg10 mi
6:58 am57 °FPassing clouds.7 mph87%29.80 "Hg10 mi
5:58 am61 °FMostly cloudy.7 mph79%29.78 "Hg10 mi
4:58 am63 °FPartly cloudy.10 mph92%29.75 "Hg10 mi
4:44 am64 °FLight rain. Partly cloudy.7 mph88%29.76 "Hg10 mi
3:58 am65 °FLight rain. Fog.No wind88%29.73 "Hg5 mi
3:15 am68 °FLight rain. Overcast.16 mph78%29.76 "Hg9 mi
2:58 am67 °FLight rain. Overcast.6 mph80%29.70 "Hg8 mi
2:39 am66 °FThundershowers. Mostly cloudy.8 mph83%29.72 "Hg8 mi
2:26 am64 °FThunderstorms. Mostly cloudy.12 mph88%29.72 "Hg3 mi
2:18 am66 °FThunderstorms. Overcast.17 mph83%29.73 "Hg2 mi
1:58 am78 °FMostly cloudy.17 mph81%29.70 "Hg10 mi
12:58 am77 °FPassing clouds.18 mph83%29.59 "Hg10 mi
11:58 pm
Sun, Oct 20
77 °FPassing clouds.20 mph83%29.64 "Hg10 mi
10:58 pm78 °FOvercast.16 mph79%29.66 "Hg10 mi
10:38 pm79 °FPassing clouds.17 mph79%29.66 "Hg10 mi
9:58 pm79 °FClear.16 mph73%29.65 "Hg10 mi
8:58 pm81 °FClear.13 mph67%29.64 "Hg10 mi
7:58 pm81 °FClear.8 mph59%29.63 "Hg10 mi
6:58 pm85 °FClear.12 mph52%29.61 "Hg9 mi
5:58 pm88 °FScattered clouds.18 mph49%29.62 "Hg10 mi
Weather by CustomWeather, © 2019

See weather overview